Regional Weather Roundup
Issued by NWS

Home | Current Version | Previous Version | Graphics & Text | Print | Product List | Glossary On
Versions: 1 2 3 4 5 6 7 8 9 10 11 12 13 14 15 16 17 18 19 20 21 22 23 24 25 26 27 28 29 30 31 32 33 34 35 36 37 38 39 40 41 42 43 44 45 46 47 48 49
000
ASUS43 KDMX 301407
RWRIA

WEATHER ROUNDUP FOR IOWA
NATIONAL WEATHER SERVICE DES MOINES IA
900 AM CDT WED JUL 30 2014

NOTE: "FAIR" INDICATES FEW OR NO CLOUDS BELOW 12,000 FEET WITH NO
SIGNIFICANT WEATHER AND/OR OBSTRUCTIONS TO VISIBILITY.

* - THESE STATIONS ARE NOT NWS STATIONS...THUS NOT UNDER NWS
QUALITY CONTROL.  THEY ALSO DO NOT REPORT WEATHER SUCH
AS PRECIPITATION OR FOG.

IAZ001>003-012>014-020>022-031>034-043>046-301500-
   NORTHWEST IOWA

CITY           SKY/WX    TMP DP  RH WIND       PRES   REMARKS
CARROLL *      SUNNY     64  59  82 NW5       30.15R
CHEROKEE *     SUNNY     61  59  94 CALM      30.16S
DENISON *      SUNNY     63  57  82 CALM      30.14S
LE MARS *      SUNNY     63  57  82 CALM      30.17S
ORANGE CITY *  SUNNY     68  55  64 CALM      30.16S
SHELDON *      SUNNY     63  57  82 N5        30.15S
SIOUX CITY     SUNNY     66  58  75 VRB5      30.16R
SPENCER        SUNNY     64  57  78 NW5       30.15S
STORM LAKE *   SUNNY     66  59  77 VRB5      30.16S
$$

IAZ055>058-069>071-079>083-090>094-301500-
   SOUTHWEST IOWA

CITY           SKY/WX    TMP DP  RH WIND       PRES   REMARKS
ATLANTIC *     SUNNY     66  57  72 N6        30.15R
AUDUBON *      SUNNY     70  63  78 NW3       30.16R
CLARINDA *     SUNNY     64  57  77 N7        30.16S
COUNCIL BLFS * SUNNY     66  61  82 N5        30.15R
CRESTON *      SUNNY     68  57  68 N6        30.15R
HARLAN  *      SUNNY     63  59  88 CALM      30.19R
LAMONI         SUNNY     67  58  72 N7        30.14R
RED OAK *      SUNNY     66  59  77 MISG      30.15S
SHENANDOAH *   SUNNY     64  59  82 CALM      30.16R
$$

IAZ047>049-059>061-072>074-084-301500-
   CENTRAL IOWA

CITY           SKY/WX    TMP DP  RH WIND       PRES   REMARKS
AMES           SUNNY     67  57  70 N6        30.12S
ANKENY *       SUNNY     68  57  68 NW6       30.12S
CHARITON *     SUNNY     66  57  72 N7        30.13R
DES MOINES     MOSUNNY   68  57  68 NW5       30.12R
GRINNELL*      SUNNY     64  59  82 NW6       30.11S
KNOXVILLE *    SUNNY     64  59  82 NW5       30.11S
MARSHALLTOWN   SUNNY     65  60  84 N5        30.11R
PELLA *        SUNNY     68  59  73 NW3       30.13R
PERRY *          N/A     63  59  88 CALM      30.14R
$$

IAZ004>006-015-016-023>025-035-036-301500-
   NORTH CENTRAL IOWA

CITY           SKY/WX    TMP DP  RH WIND       PRES   REMARKS
ALGONA *       SUNNY     64  59  82 N6        30.14S
CLARION *      SUNNY     63  59  88 NW5       30.13S
ESTHERVILLE    SUNNY     64  57  78 NW5       30.15R
FORT DODGE *   SUNNY     64  57  77 N6        30.14S
MASON CITY     SUNNY     65  58  78 NW6       30.13S
FOREST CITY *  SUNNY     64  59  82 NE5       30.13R
IOWA FALLS *     N/A     64  59  82 NW5       30.13R
$$

IAZ007>011-017>019-026>030-037>042-050>054-066-301500-
   NORTHEAST IOWA

CITY           SKY/WX    TMP DP  RH WIND       PRES   REMARKS
CEDAR RAPIDS   SUNNY     64  56  75 NW7       30.09R
CHARLES CITY * SUNNY     64  59  82 NW7       30.11S
CLINTON *      SUNNY     66  59  77 NW6       30.10R
DECORAH *      SUNNY     64  59  82 VRB5      30.08S
DUBUQUE        SUNNY     67  59  75 N5        30.08S
MONTICELLO *   SUNNY     66  61  82 NW3       30.08S
OELWEIN *      SUNNY     64  61  88 NW5       30.10R
WATERLOO       SUNNY     65  58  78 NW7       30.09R
$$

IAZ064-065-067-068-078-301500-
   EAST CENTRAL IOWA

CITY           SKY/WX    TMP DP  RH WIND       PRES   REMARKS
DAVENPORT      SUNNY     66  60  81 NW3       30.08S
IOWA CITY      SUNNY     67  58  72 NW6       30.10R
MT. PLEASANT * SUNNY     70  59  68 W5        30.10S
MUSCATINE *    SUNNY     68  59  73 NW7       30.09R
QUAD CITIES    SUNNY     69  58  67 CALM      30.08R
$$

IAZ062-063-075>077-085>089-095>099-301500-
   SOUTHEAST IOWA

CITY           SKY/WX    TMP DP  RH WIND       PRES   REMARKS
BURLINGTON     SUNNY     68  61  78 NW5       30.09R
FAIRFIELD *    SUNNY     66  59  77 VRB5      30.11S
FORT MADISON * SUNNY     70  63  78 NW5       30.11R
KEOKUK *       SUNNY     70  61  73 CALM      30.10R
OSKALOOSA *      N/A     64  61  88 W3        30.11S
CENTERVILLE *  SUNNY     68  61  77 W3        30.14R
OTTUMWA        SUNNY     66  60  81 NW6       30.11R
WASHINGTON *   SUNNY     66  61  82 NW6       30.10R
$$

ABBREVIATIONS USED IN REMARKS
   TC - TEMPERATURES IN CELSIUS
  WCI - WIND CHILL INDEX
   HX - HEAT INDEX
  VSB - VISIBILITY
$$




USA.gov is the U.S. government's official web portal to all federal, state and local government web resources and services.